Newton, IA

1:12 PM CDT on July 26, 2017 (GMT -0500)
Newton Municipal

Weather History for KTNU - October, 2012

Change the Weather History Date:

Tuesday, October 16, 2012

  Actual Average Record
Temperature  
Mean Temperature 62 °F -  
Max Temperature 77 °F 63 °F 82 °F (1998)
Min Temperature 46 °F 40 °F 23 °F (1976)
Degree Days  
Heating Degree Days 4    
Growing Degree Days 12 (Base 50)    
Moisture  
Dew Point 47 °F    
Average Humidity 66    
Maximum Humidity 87    
Minimum Humidity 38    
Precipitation  
Precipitation 0.00 in - - ()
Sea Level Pressure  
Sea Level Pressure 29.57 in    
Wind  
Wind Speed 12 mph (South)    
Max Wind Speed 22 mph    
Max Gust Speed 28 mph    
Visibility 10 miles    
Events      
Averages and records for this station are not official NWS values.
T = Trace of Precipitation, MM = Missing Value Source: NWS Daily Summary

Daily Weather History Graph

Daily Weather History Graph

Search for Another Location

Airport or City:

Trip Planner

Search our weather history database for the weather conditions in past years. The results will help you decide how hot, cold, wet, or windy it might be!

Date:

Astronomy

Oct. 16, 2012 Rise Set
Actual Time 7:25 AM CDT 6:28 PM CDT
Civil Twilight 6:57 AM CDT 6:56 PM CDT
Nautical Twilight 6:25 AM CDT 7:28 PM CDT
Astronomical Twilight 5:53 AM CDT 8:00 PM CDT
Moon 8:51 AM CDT (10/16) 7:11 PM CDT (10/16)
Length of Visible Light 11h 58m
Length of Day
11h 02m
New Moon, 2% of the Moon is Illuminated
Oct 16
New Moon
Oct 21
First Quarter
Oct 29
Full
Nov 6
Last Quarter
Nov 13
New

Hourly Weather History & Observations

Time (CDT) Temp. Windchill Dew Point Humidity Pressure Visibility Wind Dir Wind Speed Gust Speed Precip Events Conditions
12:15 AM 48.2 °F - 42.8 °F 82% 29.85 in 10.0 mi SE 9.2 mph - N/A   Clear
12:35 AM 46.4 °F 42.9 °F 42.8 °F 87% 29.84 in 10.0 mi SSE 6.9 mph - N/A   Clear
12:55 AM 46.4 °F 41.5 °F 42.8 °F 87% 29.83 in 10.0 mi SE 10.4 mph - N/A   Clear
1:15 AM 46.4 °F 41.5 °F 42.8 °F 87% 29.83 in 10.0 mi SE 10.4 mph - N/A   Clear
1:35 AM 46.4 °F 41.1 °F 42.8 °F 87% 29.82 in 10.0 mi SE 11.5 mph - N/A   Clear
1:55 AM 46.4 °F 41.5 °F 42.8 °F 87% 29.82 in 10.0 mi SE 10.4 mph - N/A   Clear
2:15 AM 46.4 °F 41.1 °F 42.8 °F 87% 29.80 in 10.0 mi SE 11.5 mph - N/A   Clear
2:35 AM 48.2 °F - 42.8 °F 82% 29.80 in 10.0 mi SSE 11.5 mph - N/A   Clear
2:55 AM 48.2 °F - 42.8 °F 82% 29.78 in 10.0 mi SSE 11.5 mph - N/A   Clear
3:15 AM 46.4 °F 41.5 °F 42.8 °F 87% 29.77 in 10.0 mi SE 10.4 mph - N/A   Clear
3:35 AM 46.4 °F 41.1 °F 42.8 °F 87% 29.75 in 10.0 mi SSE 11.5 mph - N/A   Clear
3:55 AM 48.2 °F - 42.8 °F 82% 29.73 in 10.0 mi SSE 11.5 mph - N/A   Clear
4:15 AM 48.2 °F - 42.8 °F 82% 29.73 in 10.0 mi SSE 12.7 mph - N/A   Clear
4:35 AM 48.2 °F - 42.8 °F 82% 29.71 in 10.0 mi SSE 12.7 mph - N/A   Clear
4:55 AM 48.2 °F - 42.8 °F 82% 29.70 in 10.0 mi SE 11.5 mph - N/A   Clear
5:15 AM 48.2 °F - 42.8 °F 82% 29.70 in 10.0 mi SSE 12.7 mph - N/A   Clear
5:35 AM 48.2 °F - 42.8 °F 82% 29.69 in 10.0 mi SE 11.5 mph - N/A   Clear
5:55 AM 48.2 °F - 42.8 °F 82% 29.68 in 10.0 mi SE 12.7 mph - N/A   Clear
6:15 AM 48.2 °F - 42.8 °F 82% 29.67 in 10.0 mi SE 13.8 mph - N/A   Clear
6:35 AM 48.2 °F - 42.8 °F 82% 29.67 in 10.0 mi SSE 11.5 mph - N/A   Clear
7:15 AM 46.4 °F 41.5 °F 42.8 °F 87% 29.65 in 10.0 mi SE 10.4 mph - N/A   Clear
7:55 AM 48.2 °F - 44.6 °F 87% 29.63 in 10.0 mi SE 12.7 mph - N/A   Clear
8:15 AM 48.2 °F - 44.6 °F 87% 29.63 in - SE 10.4 mph - N/A   Clear
8:35 AM 50.0 °F - 44.6 °F 82% 29.62 in 10.0 mi SE 10.4 mph - N/A   Clear
8:55 AM 50.0 °F - 46.4 °F 87% 29.61 in 10.0 mi SE 13.8 mph - N/A   Clear
9:15 AM 53.6 °F - 46.4 °F 77% 29.60 in 10.0 mi SSE 12.7 mph - N/A   Clear
9:35 AM 55.4 °F - 48.2 °F 77% 29.61 in 10.0 mi South 11.5 mph - N/A   Clear
9:55 AM 57.2 °F - 48.2 °F 72% 29.59 in 10.0 mi SSE 16.1 mph - N/A   Clear
10:15 AM 59.0 °F - 50.0 °F 72% 29.57 in 10.0 mi SSE 15.0 mph - N/A   Clear
10:35 AM 62.6 °F - 50.0 °F 63% 29.57 in 10.0 mi South 15.0 mph - N/A   Clear
10:55 AM 64.4 °F - 50.0 °F 59% 29.56 in 10.0 mi SSW 15.0 mph 20.7 mph N/A   Clear
11:15 AM 64.4 °F - 50.0 °F 59% 29.55 in 10.0 mi SSW 11.5 mph 19.6 mph N/A   Clear
11:35 AM 66.2 °F - 51.8 °F 60% 29.55 in 10.0 mi SSW 12.7 mph 18.4 mph N/A   Clear
11:55 AM 68.0 °F - 51.8 °F 56% 29.54 in 10.0 mi South 13.8 mph 19.6 mph N/A   Clear
12:15 PM 68.0 °F - 51.8 °F 56% 29.53 in 10.0 mi South 13.8 mph 20.7 mph N/A   Clear
12:35 PM 69.8 °F - 51.8 °F 53% 29.51 in 10.0 mi South 13.8 mph 20.7 mph N/A   Clear
12:55 PM 71.6 °F - 51.8 °F 50% 29.50 in 10.0 mi SSW 13.8 mph 20.7 mph N/A   Clear
1:15 PM 73.4 °F - 51.8 °F 47% 29.50 in 10.0 mi SSW 18.4 mph - N/A   Clear
1:35 PM 73.4 °F - 51.8 °F 47% 29.49 in 10.0 mi SSW 13.8 mph 23.0 mph N/A   Clear
1:55 PM 71.6 °F - 51.8 °F 50% 29.48 in 10.0 mi SSW 16.1 mph 21.9 mph N/A   Clear
2:15 PM 73.4 °F - 51.8 °F 47% 29.46 in 10.0 mi SSW 18.4 mph 24.2 mph N/A   Clear
2:35 PM 75.2 °F - 51.8 °F 44% 29.47 in 10.0 mi SW 15.0 mph - N/A   Clear
2:55 PM 75.2 °F - 51.8 °F 44% 29.46 in 10.0 mi SW 13.8 mph 20.7 mph N/A   Clear
3:15 PM 75.2 °F - 51.8 °F 44% 29.45 in 10.0 mi WSW 12.7 mph 23.0 mph N/A   Clear
3:35 PM 77.0 °F - 50.0 °F 39% 29.44 in 10.0 mi SW 18.4 mph 26.5 mph N/A   Clear
3:55 PM 77.0 °F - 50.0 °F 39% 29.44 in 10.0 mi SW 19.6 mph - N/A   Clear
4:15 PM 75.2 °F - 48.2 °F 38% 29.44 in 10.0 mi SW 21.9 mph 27.6 mph N/A   Clear
4:35 PM 75.2 °F - 50.0 °F 41% 29.44 in 10.0 mi SW 17.3 mph - N/A   Clear
4:55 PM 73.4 °F - 48.2 °F 41% 29.43 in 10.0 mi SW 19.6 mph - N/A   Clear
5:15 PM 73.4 °F - 48.2 °F 41% 29.44 in - SW 16.1 mph 25.3 mph N/A   Clear
5:35 PM 71.6 °F - 50.0 °F 46% 29.44 in 10.0 mi SW 17.3 mph - N/A   Clear
5:55 PM 69.8 °F - 50.0 °F 49% 29.44 in 10.0 mi SW 13.8 mph - N/A   Clear
6:15 PM 69.8 °F - 50.0 °F 49% 29.44 in 10.0 mi SW 12.7 mph 18.4 mph N/A   Clear
6:35 PM 68.0 °F - 50.0 °F 52% 29.45 in 10.0 mi SW 10.4 mph - N/A   Clear
6:55 PM 66.2 °F - 50.0 °F 56% 29.45 in 10.0 mi SW 9.2 mph - N/A   Clear
7:15 PM 64.4 °F - 50.0 °F 59% 29.45 in 10.0 mi SW 9.2 mph - N/A   Clear
7:35 PM 64.4 °F - 50.0 °F 59% 29.45 in 10.0 mi SW 10.4 mph - N/A   Clear
7:55 PM 64.4 °F - 48.2 °F 56% 29.45 in 10.0 mi SSW 10.4 mph - N/A   Clear
8:15 PM 62.6 °F - 48.2 °F 59% 29.46 in 10.0 mi SSW 8.1 mph - N/A   Clear
8:35 PM 62.6 °F - 48.2 °F 59% 29.46 in 10.0 mi SW 9.2 mph - N/A   Clear
8:55 PM 60.8 °F - 48.2 °F 63% 29.46 in 10.0 mi WSW 6.9 mph - N/A   Clear
9:15 PM 60.8 °F - 48.2 °F 63% 29.46 in 10.0 mi SW 6.9 mph - N/A   Clear
9:35 PM 60.8 °F - 48.2 °F 63% 29.45 in 10.0 mi SW 6.9 mph - N/A   Clear
9:55 PM 59.0 °F - 48.2 °F 67% 29.46 in 10.0 mi SW 6.9 mph - N/A   Clear
10:35 PM 60.8 °F - 48.2 °F 63% 29.46 in 10.0 mi SW 5.8 mph - N/A   Clear
10:55 PM 59.0 °F - 48.2 °F 67% 29.46 in 10.0 mi SSW 6.9 mph - N/A   Clear
11:15 PM 57.2 °F - 48.2 °F 72% 29.46 in 10.0 mi South 4.6 mph - N/A   Clear
11:35 PM 55.4 °F - 48.2 °F 77% 29.46 in 10.0 mi South 8.1 mph - N/A   Clear
11:55 PM 55.4 °F - 48.2 °F 77% 29.46 in 10.0 mi South 6.9 mph - N/A   Clear